Location: Feuerbach
(48.8180°N, 9.1663°E)
Time: 00:47:31
(UTC+00:00)

Daily predictions for brighter satellites

Satellite Brightness Start Highest point End
(mag) Time Altitude Azimuth Time Altitude Azimuth Time Altitude Azimuth
CENTAUR R/B 4.4 02:05:13 26° N 02:05:13 26° N 02:10:43 10° NE
ACS3 Solar Sail 3.5 02:00:27 10° NNE 02:03:45 26° ENE 02:03:45 26° ENE
Cosmos 2360 Rocket 4.2 02:17:23 23° NE 02:17:23 23° NE 02:19:37 10° NE
USA 234 4.4 02:07:45 10° ESE 02:11:31 37° E 02:11:31 37° E
Cosmos 2322 Rocket 4.2 02:17:42 23° NE 02:17:42 23° NE 02:19:49 10° NE
SL-16 R/B 4.3 02:24:11 20° NNE 02:24:11 20° NNE 02:25:50 10° NNE
Cosmos 1943 Rocket 4.4 02:24:45 18° NNE 02:25:44 18° NE 02:29:30 10° E
ADEOS Rocket 3.7 02:33:17 10° NNE 02:38:45 58° ENE 02:38:45 58° ENE
CZ-2C R/B 4.3 02:37:43 10° NE 02:41:56 26° E 02:42:20 26° ESE
Cosmos 2219 Rocket 3.1 02:55:06 46° ENE 02:55:06 46° ENE 02:59:23 10° NE
BREEZE-M DEB (TANK) 4.4 02:53:28 76° WSW 02:54:01 79° SSW 03:18:08 10° SE
USA 267 3.1 03:13:12 10° NE 03:19:46 87° SE 03:20:18 78° SW
Cosmos 2228 Rocket 4.1 03:26:01 43° ENE 03:26:01 43° ENE 03:29:26 10° NNE
Cosmos 1980 Rocket 4.5 03:27:56 12° N 03:27:56 12° N 03:28:50 10° N
Cosmos 1269 Rocket 4.4 03:29:01 44° N 03:30:29 60° ENE 03:35:43 10° SE
H-2A R/B 3.9 03:26:40 10° N 03:28:05 19° N 03:28:05 19° N
USA 238 DEB 4.3 03:33:04 38° NNW 03:33:04 38° NNW 03:39:21 10° NE
USA 238 4.3 03:33:10 38° NNW 03:33:10 38° NNW 03:39:27 10° NE
Cosmos 2278 Rocket 3.3 03:29:48 20° N 03:33:21 42° NE 03:38:41 10° ESE
Cosmos 2173 Rocket 4.3 03:31:26 10° N 03:37:30 65° ENE 03:43:31 10° SSE
Cosmos 2333 Rocket 3.3 03:39:30 31° NNW 03:39:30 31° NNW 03:43:13 10° NNE
ADEOS II 4.2 03:39:10 10° N 03:39:55 13° N 03:39:55 13° N
COSMOS 2455 3.3 03:45:06 44° NNW 03:45:06 44° NNW 03:50:23 10° NNE
Lacrosse 5 rocket 3.2 03:46:58 19° NNE 03:46:58 19° NNE 03:48:11 10° NE
Cosmos 1153 Rocket 4.3 03:39:53 10° NNW 03:46:02 72° W 03:52:13 10° S
Cosmos 2298 Rocket 4.1 03:46:57 59° NNW 03:46:57 59° NNW 03:51:36 10° NNE
Cosmos 1939 Rocket 3.7 03:43:31 10° NNE 03:47:16 47° E 03:48:49 29° SSE
ACS3 Solar Sail 2.2 03:43:15 10° N 03:47:53 43° NW 03:47:53 43° NW
BlueWalker 3 3.0 03:53:51 38° SE 03:53:51 38° SE 03:56:12 10° SE
CENTAUR R/B 4.3 03:52:18 18° NNW 03:57:03 32° NNE 04:04:48 10° E
USA 234 3.4 03:50:56 10° SE 03:57:20 55° SW 03:58:53 45° W
Cosmos 2360 Rocket 3.0 03:59:09 34° NNW 03:59:09 34° NNW 04:03:32 10° NNE
Cosmos 2322 Rocket 3.2 03:59:32 31° NNW 03:59:32 31° NNW 04:03:42 10° NNE
Helios 1A Rocket 4.1 03:57:16 10° SE 04:00:21 34° ENE 04:02:41 15° N
Gbstr 26 Del rocket 3.8 03:59:16 41° SSW 04:00:43 58° SSE 04:06:27 10° ENE
SL-16 R/B 3.7 04:06:02 20° NNW 04:06:02 20° NNW 04:09:18 10° N
Cosmos 44 Rocket 3.3 04:05:02 53° NW 04:06:14 77° SW 04:11:22 10° SSE
Cosmos 2016 Rocket 4.4 04:02:24 10° N 04:08:47 68° ENE 04:15:06 10° SSE
Cosmos 1943 Rocket 2.2 04:06:17 18° NNW 04:10:27 75° ENE 04:15:57 10° SSE
Meteor 2-14 Rocket 4.3 04:05:51 10° SSW 04:11:56 68° WNW 04:18:02 10° N
Okean 1-7 3.6 04:13:10 40° NNW 04:13:10 40° NNW 04:16:08 10° N
H-2A R/B 3.9 04:08:32 10° N 04:11:15 42° N 04:11:15 42° N
ARGOS 3.3 04:09:35 10° N 04:14:48 49° WNW 04:16:17 39° WSW
NOSS 2-1 (C) 2.8 04:14:58 78° ESE 04:14:58 78° ESE 04:17:57 10° NE
PAYLOAD A 4.1 04:10:19 10° N 04:15:41 63° WNW 04:20:29 12° SSW
Cosmos 1908 Rocket 3.5 04:11:59 10° N 04:16:26 89° ENE 04:20:52 10° S
Cosmos 1140 Rocket 3.3 04:15:56 29° NW 04:18:28 66° WSW 04:23:30 10° S
NOSS 2-1 (D) 2.7 04:19:05 82° NNE 04:19:05 82° NNE 04:22:00 10° NE
CZ-2C R/B 2.6 04:15:23 10° N 04:20:10 47° WNW 04:21:32 38° WSW
Timation 2 Rocket 4.0 04:14:48 15° NNW 04:20:25 77° WSW 04:26:48 10° SSE
Cosmos 1300 Rocket 4.1 04:16:53 10° N 04:21:12 58° ENE 04:25:26 10° SSE
Cosmos 1809 Rocket 4.5 04:17:59 10° SSW 04:23:56 54° WNW 04:29:55 10° N
ADEOS Rocket 4.0 04:19:28 10° N 04:24:55 30° WNW 04:25:40 29° WNW
Cosmos 2061 Rocket 4.4 04:22:38 10° N 04:28:49 63° ENE 04:34:57 10° SSE
NOSS 3-1 (C) 2.9 04:27:25 30° SW 04:29:53 73° NW 04:35:43 10° NE
Iridium 4 Rocket 3.0 04:27:18 10° N 04:31:43 85° E 04:35:53 10° S
Cosmos 2100 Rocket 4.0 04:26:10 10° NNW 04:32:06 51° W 04:38:01 10° SSW
SJ 16-02 3.3 04:28:46 10° N 04:32:30 27° ENE 04:36:11 10° ESE
Cosmos 2219 Rocket 3.0 04:36:50 28° WNW 04:38:05 31° NW 04:43:07 10° NNE
IRS-1D 3.4 04:35:18 10° NNE 04:40:19 87° WNW 04:45:14 10° SSW
NOSS 0 Rocket 3.9 04:38:01 10° SSW 04:44:10 88° ESE 04:50:22 10° NNE
COSMOS 2428 2.7 04:42:03 10° SW 04:47:39 59° WNW 04:53:18 10° NNE
USA 59 Rocket -0.3 04:50:47 34° WNW 04:51:18 37° NW 04:54:05 10° NNE
Cosmos 1459 Rocket 4.4 04:47:20 10° NNW 04:53:14 41° W 04:59:05 10° SSW
Cosmos 2322 4.0 04:50:01 11° SW 04:55:12 46° NW 05:00:41 10° NNE
FengYun 1-2 T 4.3 04:51:22 10° N 04:56:46 54° WNW 05:02:11 10° SW
COSMO-SKYMED 1 2.4 04:54:26 10° S 04:58:32 67° WSW 05:02:39 10° NNW
SKYMED 2 3.8 04:55:41 10° S 04:59:53 48° W 05:04:07 10° NNW
Cosmos 407 Rocket 3.5 04:55:23 10° NNW 05:00:23 55° WSW 05:05:21 10° S
USA 267 3.6 04:56:17 10° ENE 05:02:33 50° NNW 05:07:39 16° W
Cosmos 1484 Rocket 3.2 04:59:23 10° NNE 05:02:54 58° E 05:06:24 10° S
Cosmos 2228 Rocket 4.3 05:03:28 20° WNW 05:03:34 20° WNW 05:06:48 10° NNW
Cosmos 1725 Rocket 4.2 04:57:42 10° NNW 05:03:45 49° W 05:09:45 10° SSW
Cosmos 1980 3.7 05:01:42 10° SSW 05:07:21 84° WNW 05:13:04 10° NNE
Cosmos 1802 Rocket 4.4 05:05:43 10° NNW 05:11:33 39° W 05:17:18 10° SSW
Cosmos 1656 Rocket 4.2 05:07:56 10° NNW 05:13:35 62° ENE 05:19:13 10° SE
NOSS 3-1 (A) 2.9 05:09:15 10° SW 05:14:01 79° NW 05:19:53 10° NE
Cosmos 2233 Rocket 4.1 05:08:51 10° NNW 05:15:02 58° W 05:21:09 10° S
Cosmos 2278 Rocket 2.7 05:12:11 10° NW 05:17:22 38° WSW 05:22:32 10° S
Cosmos 1703 Rocket 4.3 05:14:02 10° SW 05:17:54 31° WNW 05:21:49 10° N
Cosmos 2251 Rocket 3.5 05:13:56 10° NNW 05:19:17 69° WSW 05:24:35 10° S
Cosmos 304 Rocket 4.1 05:14:53 10° NNW 05:19:40 69° ENE 05:24:24 10° SSE
Cosmos 1939 Rocket 4.2 05:18:17 10° NNW 05:20:55 18° WNW 05:23:31 10° WSW
NOSS 2-1 (E) 3.7 05:18:52 14° W 05:21:09 29° NW 05:23:53 10° NNE
CZ-3 R/B 4.1 05:18:45 10° SW 05:22:06 12° SSW 05:24:37 10° SSE
Lacrosse 5 rocket 2.6 05:20:39 12° NW 05:22:54 20° N 05:25:28 10° NE
Cosmos 2237 Rocket 2.2 05:18:01 10° SW 05:23:40 70° WNW 05:29:20 10° NNE
Cosmos 2333 Rocket 4.1 05:21:49 10° NW 05:23:58 12° NNW 05:26:07 10° N
IGS 5A 3.7 05:21:53 10° NNE 05:25:54 70° E 05:29:53 10° S
Cosmos 2292 Rocket 4.3 05:24:21 10° SW 05:28:24 38° WNW 05:33:32 10° N
BlueWalker 3 3.8 05:27:40 11° W 05:29:39 15° SW 05:31:48 10° S
ACS3 Solar Sail 3.5 05:29:53 10° NW 05:30:36 10° NW 05:31:19 10° NW
Cosmos 2151 Rocket 4.4 05:27:31 10° N 05:31:58 55° ENE 05:36:21 10° SSE
COSMOS 2455 4.5 05:28:15 10° WNW 05:32:07 17° NNW 05:36:01 10° NNE
Meteor 1-24 Rocket 4.4 05:28:09 10° SW 05:33:11 31° WNW 05:38:07 10° N
Helios 1A Rocket 4.0 05:30:50 10° SW 05:33:12 17° W 05:35:33 10° NW
Cosmos 2242 Rocket 3.5 05:29:52 10° S 05:34:14 84° W 05:38:40 10° N
Cosmos 2369 Rocket 3.0 05:29:51 10° NNW 05:35:24 51° NE 05:40:57 10° SE
Cosmos 1782 Rocket 4.5 05:34:22 10° NNW 05:38:05 27° W 05:41:45 10° SW
Cosmos 1624 Rocket 4.2 05:34:46 10° SSW 05:39:56 80° ESE 05:45:08 10° NNE
Cosmos 968 Rocket 4.3 05:36:46 10° NNW 05:41:55 54° ENE 05:47:02 10° SE
Cosmos 2360 Rocket 4.1 05:42:32 10° NW 05:44:08 11° NNW 05:45:46 10° N
Cosmos 2322 Rocket 4.2 05:43:32 10° NW 05:44:35 10° NNW 05:45:39 10° NNW
Cosmos 1420 Rocket 4.1 05:40:33 10° SW 05:45:44 59° WNW 05:51:00 10° NNE
Cosmos 1674 Rocket 4.2 05:42:51 10° S 05:47:12 62° E 05:51:36 10° NNE
Gbstr 26 Del rocket 3.8 05:42:04 10° W 05:47:17 70° N 05:53:47 10° ENE
CENTAUR R/B 3.7 05:41:10 10° NW 05:49:11 67° NE 05:58:29 10° SE
ARIANE 5 R/B 3.3 05:45:31 10° NNE 05:50:30 58° ESE 05:55:31 10° S
